White Plains, CT

7:34 AM EST on November 19, 2019 (GMT -0500)
Westchester County

Weather History for KHPN - September, 2019

Change the Weather History Date:

Saturday, September 7, 2019

  Actual Average Record
Temperature  
Mean Temperature 64 °F -  
Max Temperature 73 °F 74 °F 91 °F (2015)
Min Temperature 54 °F 58 °F 33 °F (1996)
Degree Days  
Heating Degree Days 2    
Growing Degree Days 14 (Base 50)    
Moisture  
Dew Point 53 °F    
Average Humidity 73    
Maximum Humidity 93    
Minimum Humidity 48    
Precipitation  
Precipitation 0.12 in - - ()
Sea Level Pressure  
Sea Level Pressure 29.80 in    
Wind  
Wind Speed 11 mph ()    
Max Wind Speed 17 mph    
Max Gust Speed 28 mph    
Visibility 9.4 miles    
Events Rain    
Averages and records for this station are not official NWS values.
T = Trace of Precipitation, MM = Missing Value Source: Averaged Metar Reports

Daily Weather History Graph

Daily Weather History Graph

Search for Another Location

Airport or City:

Astronomy

Sep. 07, 2019 Rise Set
Actual Time 6:27 AM EDT 7:17 PM EDT
Civil Twilight 5:59 AM EDT 7:45 PM EDT
Nautical Twilight 5:25 AM EDT 8:18 PM EDT
Astronomical Twilight 4:51 AM EDT 8:53 PM EDT
Moon 3:33 PM EDT (9/7) 12:14 AM EDT (9/7)
Length of Visible Light 13h 46m
Length of Day
12h 50m
Waxing Gibbous, 65% of the Moon is Illuminated
Sep 7
Waxing Gibbous
Sep 14
Full
Sep 21
Last Quarter
Sep 28
New
Oct 5
First Quarter

Hourly Weather History & Observations

Time (EDT) Temp. Dew Point Humidity Pressure Visibility Wind Dir Wind Speed Gust Speed Precip Events Conditions
12:56 AM 57.0 °F 55.0 °F 93% 29.75 in 6.0 mi NNW 16.1 mph - 0.00 in Rain Light Rain
1:19 AM 55.9 °F 54.0 °F 93% 29.75 in 4.0 mi NNW 15.0 mph - 0.01 in Rain Light Rain
1:56 AM 55.9 °F 54.0 °F 93% 29.74 in 6.0 mi NNW 17.3 mph - 0.02 in Rain Light Rain
2:56 AM 55.0 °F 53.1 °F 93% 29.73 in 8.0 mi NNW 15.0 mph 27.6 mph 0.10 in Rain Light Rain
3:15 AM 55.0 °F 53.1 °F 93% 29.73 in 10.0 mi NNW 12.7 mph - 0.00 in Rain Light Rain
3:56 AM 55.9 °F 53.1 °F 90% 29.72 in 10.0 mi NNW 12.7 mph - 0.00 in   Mostly Cloudy
4:56 AM 55.0 °F 52.0 °F 89% 29.74 in 10.0 mi NNW 12.7 mph - N/A   Partly Cloudy
5:56 AM 54.0 °F 52.0 °F 93% 29.76 in 10.0 mi NW 13.8 mph - N/A   Partly Cloudy
6:56 AM 54.0 °F 52.0 °F 93% 29.79 in 10.0 mi NW 9.2 mph - N/A   Partly Cloudy
7:56 AM 55.9 °F 52.0 °F 87% 29.79 in 10.0 mi NNW 10.4 mph - N/A   Partly Cloudy
8:56 AM 60.1 °F 52.0 °F 75% 29.80 in 10.0 mi NW 11.5 mph - N/A   Partly Cloudy
9:56 AM 62.1 °F 52.0 °F 70% 29.81 in 10.0 mi NW 13.8 mph - N/A   Clear
10:56 AM 66.0 °F 51.1 °F 59% 29.81 in 10.0 mi NNW 12.7 mph - N/A   Partly Cloudy
11:56 AM 68.0 °F 50.0 °F 52% 29.81 in 10.0 mi NW 13.8 mph - N/A   Partly Cloudy
12:56 PM 70.0 °F 51.1 °F 51% 29.81 in 10.0 mi NW 12.7 mph - N/A   Scattered Clouds
1:56 PM 70.0 °F 52.0 °F 53% 29.80 in 10.0 mi WNW 11.5 mph - N/A   Scattered Clouds
2:56 PM 71.1 °F 53.1 °F 53% 29.78 in 10.0 mi WNW 6.9 mph - N/A   Mostly Cloudy
3:56 PM 73.0 °F 52.0 °F 48% 29.79 in 10.0 mi NW 12.7 mph 17.3 mph N/A   Mostly Cloudy
4:56 PM 72.0 °F 52.0 °F 49% 29.80 in 10.0 mi WNW 11.5 mph 21.9 mph N/A   Mostly Cloudy
5:56 PM 72.0 °F 52.0 °F 49% 29.81 in 10.0 mi WNW 11.5 mph - N/A   Mostly Cloudy
6:56 PM 69.1 °F 53.1 °F 57% 29.84 in 10.0 mi WNW 6.9 mph - N/A   Scattered Clouds
7:56 PM 66.9 °F 51.1 °F 57% 29.85 in 10.0 mi West 5.8 mph - N/A   Scattered Clouds
8:56 PM 64.0 °F 51.1 °F 63% 29.87 in 10.0 mi West 6.9 mph - N/A   Clear
9:56 PM 60.1 °F 54.0 °F 80% 29.89 in 10.0 mi Calm Calm - N/A   Clear
10:56 PM 59.0 °F 55.0 °F 87% 29.89 in 10.0 mi WSW 3.5 mph - N/A   Clear
11:56 PM 62.1 °F 54.0 °F 75% 29.90 in 10.0 mi West 3.5 mph - N/A   Partly Cloudy